Weather in Balpyk bi

Kazakhstan     44°54′02″N   78°13′20″E
temp.,
°C
wind,
m/s
gust,
m/s
humid.,
%
clouds,
%
prec.,
mm/h
press.,
hPa
HPBL,
m
15 april, thu
thu1500:00+10ne36374 0.0 101996
03:00+8ne33415 0.0 101847
06:00+7ne33450 0.0 101841
09:00+13ne35370 0.0 1017277
12:00+19nne55300 0.0 1016650
15:00+21ne76230 0.0 10141167
18:00+19ne610250 0.0 1014614
21:00+13ne48310 0.0 1016140
16 april, fri
fri1600:00+11e33420 0.0 101627
03:00+10e33400 0.0 101520
06:00+9e334211 0.0 101520
09:00+16se22354 0.0 1015225
12:00+21w34280 0.0 10141167
15:00+23nw44249 0.0 10121789
18:00+21wnw3527100 0.0 1013210
21:00+16sw2231100 0.0 101514
17 april, sat
sat1700:00+14s2242100 0.1 101511
03:00+14sse2342100 0.0 101426
06:00+11ssw115199 0.1 101510
09:00+17sw253992 0.0 1016418
12:00+20wsw693589 0.0 10152064
15:00+21wsw711297 0.0 10143121
18:00+20w573058 0.0 10151419
21:00+14sw124484 0.0 101713
18 april, sun
sun1800:00+12s22475 0.0 101711
03:00+11se22508 0.0 101610
06:00+10se22539 0.0 101710
09:00+16sse1239100 0.0 1017270
12:00+20w3324100 0.0 10162129
15:00+21wnw342090 0.0 10152799
18:00+20w3424100 0.0 1015448
21:00+17sw2230100 0.0 101626
19 april, mon
mon1900:00+14s3335100 0.0 101629
03:00+11s3570100 0.6 101794
06:00+11sse3377100 1.6 101764
09:00+15sw4851100 0.5 10171034
12:00+19wsw68361 0.5 10162323
15:00+21w682690 0.0 10143064
18:00+20sw3528100 0.0 10121138
21:00+15s33379 0.0 101230